WetterOnline ( https://www.wetteronline.de )

Wetter aktuell Vignoles

Aktuelles Wetter: Dole-Jura Aéroport (195m)

6-stündlich | Neueste Meldungen
Ortszeit Temperatur Wetter
Fr, 21.06. 8:00 17.2° C bedeckt
Fr, 21.06. 2:00 16.2° C bedeckt
Do, 20.06. 20:00 20.5° C bedeckt
Do, 20.06. 14:00 23.4° C bedeckt
Do, 20.06. 8:00 18.9° C bedeckt
Do, 20.06. 2:00 19.1° C bewölkt
Mi, 19.06. 20:00 25.0° C -
Mi, 19.06. 14:00 26.4° C -
Ortszeit Temperatur Wetter
Fr, 21.06. 10:00 19.6° C bedeckt
Fr, 21.06. 9:00 17.6° C bedeckt
Fr, 21.06. 8:00 17.2° C bedeckt
Fr, 21.06. 7:00 16.8° C bedeckt
Fr, 21.06. 6:00 16.6° C leichter Regen
Fr, 21.06. 5:00 16.8° C Regen
Fr, 21.06. 4:00 16.4° C bedeckt
Ortszeit Relative Feuchte Sichtweite
Fr, 21.06. 8:00 98% 19 km
Fr, 21.06. 2:00 98% 8 km
Do, 20.06. 20:00 78% 17 km
Do, 20.06. 14:00 67% 19 km
Do, 20.06. 8:00 97% 12 km
Do, 20.06. 2:00 95% 22 km
Mi, 19.06. 20:00 62% 45 km
Mi, 19.06. 14:00 55% 19 km
Ortszeit Relative Feuchte Sichtweite
Fr, 21.06. 10:00 90% 40 km
Fr, 21.06. 9:00 97% 19 km
Fr, 21.06. 8:00 98% 19 km
Fr, 21.06. 7:00 99% 14 km
Fr, 21.06. 6:00 99% 8 km
Fr, 21.06. 5:00 98% 9 km
Fr, 21.06. 4:00 99% 14 km
Ortszeit Niederschlagsmenge Niederschlagsart
Fr, 21.06. 8:00 8 l/m2 in 12 Std. -
Fr, 21.06. 2:00 0.4 l/m2 in 6 Std. -
Do, 20.06. 20:00 0.1 l/m2 in 12 Std. -
Do, 20.06. 14:00 0.1 l/m2 in 6 Std. -
Do, 20.06. 8:00 2 l/m2 in 12 Std. -
Do, 20.06. 2:00 2 l/m2 in 6 Std. -
Mi, 19.06. 20:00 0.0 l/m2 in 12 Std. -
Mi, 19.06. 14:00 0.0 l/m2 in 6 Std. -
Ortszeit Niederschlagsmenge Niederschlagsart
Fr, 21.06. 10:00 0.0 l/m2 in 1 Std. -
Fr, 21.06. 9:00 0.0 l/m2 in 1 Std. -
Fr, 21.06. 8:00 keine Meldung -
Fr, 21.06. 7:00 1.0 l/m2 in 1 Std. -
Fr, 21.06. 6:00 5.0 l/m2 in 1 Std. -
Fr, 21.06. 5:00 keine Meldung -
Fr, 21.06. 4:00 0.2 l/m2 in 1 Std. -
Ortszeit Stärke Spitze Richtung
km/h Bft. km/h Grad Sektor
Fr, 21.06. 8:00 6 1 13 130° SO
Fr, 21.06. 2:00 6 1 15 140° SO
Do, 20.06. 20:00 24 4 39 180° S
Do, 20.06. 14:00 15 3 33 210° SW
Do, 20.06. 8:00 4 1 9 350° N
Do, 20.06. 2:00 11 2 20 20° N
Mi, 19.06. 20:00 22 4 31 40° NO
Mi, 19.06. 14:00 9 2 24 20° N
Ortszeit Stärke Spitze Richtung
km/h Bft. km/h Grad Sektor
Fr, 21.06. 10:00 11 2 17 180° S
Fr, 21.06. 9:00 9 2 17 200° S
Fr, 21.06. 8:00 6 1 13 130° SO
Fr, 21.06. 7:00 6 1 11 150° SO
Fr, 21.06. 6:00 4 1 17 120° SO
Fr, 21.06. 5:00 6 1 41 290° W
Fr, 21.06. 4:00 6 1 13 80° O
Ortszeit Untergrenze Bedeckung Gattung
total tief tief mittel hoch
Fr, 21.06. 8:00 - 8/8 - - - -
Fr, 21.06. 2:00 - 8/8 - - - -
Do, 20.06. 20:00 - 8/8 - - - -
Do, 20.06. 14:00 - 8/8 - - - -
Do, 20.06. 8:00 - 8/8 - - - -
Do, 20.06. 2:00 - 7/8 - - - -
Mi, 19.06. 20:00 - - - - - -
Mi, 19.06. 14:00 - - - - - -
Ortszeit Bedeckungsgrad in Achtel und Wolkenuntergrenze
Fr, 21.06. 10:00 8
Fr, 21.06. 9:00 8
Fr, 21.06. 8:00 8
Fr, 21.06. 7:00 8
Fr, 21.06. 6:00 8
Fr, 21.06. 5:00 8
Fr, 21.06. 4:00 8
Ortszeit Luftdruck NN (hPa) Tendenz (hPa in 3 Std.)
Fr, 21.06. 8:00 1015 + 0,2
Fr, 21.06. 2:00 1016 - 0,5
Do, 20.06. 20:00 1016 + 0,4
Do, 20.06. 14:00 1016 0,0
Do, 20.06. 8:00 1016 + 0,9
Do, 20.06. 2:00 1015 + 0,2
Mi, 19.06. 20:00 1013 - 0,3
Mi, 19.06. 14:00 1014 + 0,6
Ortszeit Luftdruck NN (hPa) Tendenz (hPa in 3 Std.)
Fr, 21.06. 10:00 1015 0,0
Fr, 21.06. 9:00 1015 + 0,9
Fr, 21.06. 8:00 1015 + 0,2
Fr, 21.06. 7:00 1015 + 0,8
Fr, 21.06. 6:00 1015 - 0,6
Fr, 21.06. 5:00 1015 - 1,3
Fr, 21.06. 4:00 1014 - 2,4
Ortszeit Schneehöhe (cm)
Fr, 21.06. 8:00 0
Fr, 21.06. 2:00 0
Do, 20.06. 20:00 0
Do, 20.06. 14:00 0
Do, 20.06. 8:00 0
Do, 20.06. 2:00 0
Mi, 19.06. 20:00 0
Mi, 19.06. 14:00 0
Ortszeit Schneehöhe (cm)
Fr, 21.06. 10:00 -
Fr, 21.06. 9:00 -
Fr, 21.06. 8:00 0
Fr, 21.06. 7:00 -
Fr, 21.06. 6:00 -
Fr, 21.06. 5:00 0
Fr, 21.06. 4:00 -
Link zu dieser Seite / Seite empfehlen

Das Wetter in ...